Location: Marstown
(39.5056°N, 77.0820°W)
Time: 12:17:27
(UTC-04:00)

Envisat - Visible Passes

Search period start: 22 March 2019 00:00
Search period end: 01 April 2019 00:00
Orbit: 764 x 766 km, 98.2° (Epoch: 22 March)

Date Brightness Start Highest point End Pass type
(mag) Time Alt. Az. Time Alt. Az. Time Alt. Az.
22 Mar 3.0 19:38:45 10° SSE 19:43:48 78° ENE 19:48:54 10° N visible
22 Mar 6.2 21:22:03 10° WSW 21:23:23 11° W 21:24:43 10° WNW visible
23 Mar 5.3 20:42:04 10° SSW 20:46:16 26° W 20:50:29 10° NW visible
24 Mar 3.7 20:04:22 10° S 20:09:21 59° W 20:14:22 10° NNW visible
25 Mar 5.9 21:09:19 10° WSW 21:12:02 14° W 21:14:46 10° WNW visible
26 Mar 4.9 20:30:27 10° SSW 20:34:58 33° W 20:39:32 10° NNW visible
27 Mar 3.3 19:53:03 10° S 19:58:07 75° WSW 20:03:13 10° NNW visible
28 Mar 5.8 20:57:13 10° SW 21:00:42 19° W 21:04:13 10° NW visible
29 Mar 4.4 20:18:56 10° SSW 20:23:42 41° W 20:28:31 10° NNW visible
31 Mar 5.4 20:45:22 10° SSW 20:49:24 23° W 20:53:26 10° NW visible
